Regional Weather Roundup
Issued by NWS

Home | Current Version | Previous Version | Text Only | Print | Product List | Glossary Off
Versions: 1 2 3 4 5 6 7 8 9 10 11 12 13 14 15 16 17 18 19 20 21 22 23 24 25 26 27 28 29 30 31 32 33 34 35 36 37 38 39 40 41 42 43 44 45 46 47 48 49 50

000
ASUS43 KIND 021359
RWRIN

WEATHER ROUNDUP FOR INDIANA
NATIONAL WEATHER SERVICE INDIANAPOLIS IN
900 AM EST FRI DEC 02 2016

NOTE: "FAIR" INDICATES FEW OR NO CLOUDS BELOW 12,000 FEET WITH NO
SIGNIFICANT WEATHER AND/OR OBSTRUCTIONS TO VISIBILITY.

* - STATION DOES NOT REPORT WEATHER SUCH AS PRECIPITATION OR FOG.

+ - STATION NOT QUALITY CONTROLLED BY THE NATIONAL WEATHER SERVICE.
    USE DATA WITH CAUTION...ESPECIALLY DEWPOINT AND RELATIVE
    HUMIDITY OBSERVATIONS.

INZ001>003-010>013-019-020-021500-
NORTHWEST INDIANA

CITY           SKY/WX    TMP DP  RH WIND       PRES   REMARKS

$$

LMZ046-743>745-021500-
SOUTHERN LAKE MICHIGAN

STATION/POSITION TIME  TEMP    WIND        PRES    WAVE
                       AIR SEA DIR/SP/G            HT
                 (UTC) (F)     (DEG/KT/KT) (MB)    (FT)
BURNS HARBOR     1340   40     260/ 12/ 16 1020.0R
MICHIGAN CITY    1330   39     250/ 17/ 20   N/A

$$

INZ004-005-014>016-021>024-021500-
NORTH CENTRAL INDIANA

CITY           SKY/WX    TMP DP  RH WIND       PRES   REMARKS
ELKHART        CLOUDY    37  32  81 W9        30.08R
GOSHEN         CLOUDY    36  31  82 W10       30.09R
SOUTH BEND     CLOUDY    36  32  85 W5        30.10R

$$

INZ006>009-017-018-025>027-021500-
NORTHEAST INDIANA

CITY           SKY/WX    TMP DP  RH WIND       PRES   REMARKS
ANGOLA *+      CLOUDY    36  34  93 W10       30.06R
FORT WAYNE     LGT RAIN  36  32  85 W14       30.12R
KENDALLVILLE + RAIN      35  33  93 W9        30.08R WCI  27

$$

INZ028-029-035-036-043>045-051>053-021500-
WEST CENTRAL INDIANA

CITY           SKY/WX    TMP DP  RH WIND       PRES   REMARKS
CRAWFORDSVL +  CLOUDY    34  31  90 W6        30.17R WCI  29
GREENCASTLE +  CLOUDY    34  32  93 CALM      30.18R
LAFAYETTE      CLOUDY    36  31  82 W9        30.16R
TERRE HAUTE    CLOUDY    36  30  79 W5        30.20R

$$

INZ030>032-037>040-046>048-054>057-064-065-021500-
CENTRAL INDIANA

CITY           SKY/WX    TMP DP  RH WIND       PRES   REMARKS
ANDERSON       CLOUDY    36  30  80 W12       30.16
COLUMBUS       CLOUDY    36  32  87 SW8       30.19R
GREENWOOD *+   CLOUDY    37  31  81 W12       30.17S
INDIANAPOLIS   CLOUDY    36  29  75 W12       30.17R
-EAGLE CREEK   CLOUDY    37  29  72 W7        30.16R
KOKOMO +       CLOUDY    36  32  85 W9        30.15R
SHELBYVILLE    CLOUDY    37  29  72 W10       30.17R
ZIONSVILLE +   CLOUDY    34  31  88 W9        30.16R WCI  26

$$

INZ033-034-041-042-049-050-058-059-021500-
EAST CENTRAL INDIANA

CITY           SKY/WX    TMP DP  RH WIND       PRES   REMARKS
MUNCIE         CLOUDY    36  31  82 W7        30.14R

$$

INZ060-061-067>069-081>083-085>088-021500-
SOUTHWEST INDIANA

CITY           SKY/WX    TMP DP  RH WIND       PRES   REMARKS
EVANSVILLE     SUNNY     31  27  85 CALM      30.24R HAZE
HUNTINGBURG *+ SUNNY     28  26  92 CALM      30.23R FOG

$$

INZ062-063-066-070>080-084-089>092-021500-
SOUTH CENTRAL AND SOUTHEAST INDIANA

CITY           SKY/WX    TMP DP  RH WIND       PRES   REMARKS
BLOOMINGTON    CLOUDY    34  29  82 W5        30.19R WCI  30
MADISON *+     CLOUDY    32  30  93 CALM      30.21R
SEYMOUR +      CLOUDY    36  30  80 W5        30.21R

$$





USA.gov is the U.S. government's official web portal to all federal, state and local government web resources and services.